SAS79U EKCH-ENTC

Flight info

Callsign SAS79U
Flight time N/A
Altitude 38000
Route VEDAR L997 RISMA DCT SABAK L997 REGMA DCT EDEXU/N0458F370 DCT PESOS DCT BARVI
Aircraft A320/M-SDE3FGHIRWY/LB1

Departure

Time N/A
Airport Copenhagen Kastrup Airport (EKCH)

Arrival

Time 2026-04-27 19:00
Airport Tromsø Airport (ENTC)
Time Latitude Longitude Altitude Speed Heading
2026-04-27 18:03 64.56635 12.35741 38469 ft 417 kts 16°
2026-04-27 18:03 64.59359 12.38066 38468 ft 417 kts 16°
2026-04-27 18:04 64.64810 12.42748 38469 ft 418 kts 17°
2026-04-27 18:04 64.70262 12.47454 38468 ft 418 kts 17°
2026-04-27 18:05 64.75673 12.52146 38468 ft 418 kts 17°
2026-04-27 18:05 64.81160 12.56911 38487 ft 417 kts 17°
2026-04-27 18:06 64.86600 12.61686 38472 ft 417 kts 17°
2026-04-27 18:06 64.92036 12.66466 38467 ft 417 kts 17°
2026-04-27 18:07 64.97434 12.71218 38470 ft 417 kts 17°
2026-04-27 18:07 65.02868 12.76018 38468 ft 417 kts 17°
2026-04-27 18:08 65.08299 12.80861 38476 ft 417 kts 17°
2026-04-27 18:08 65.13731 12.85725 38466 ft 417 kts 17°
2026-04-27 18:09 65.19161 12.90613 38464 ft 417 kts 17°
2026-04-27 18:09 65.24593 12.95520 38464 ft 417 kts 17°
2026-04-27 18:10 65.30022 13.00433 38465 ft 417 kts 17°
2026-04-27 18:10 65.35445 13.05369 38457 ft 417 kts 17°
2026-04-27 18:11 65.40864 13.10322 38470 ft 417 kts 17°
2026-04-27 18:11 65.46288 13.15287 38458 ft 417 kts 17°
2026-04-27 18:12 65.51713 13.20298 38452 ft 418 kts 17°
2026-04-27 18:12 65.57144 13.25327 38451 ft 418 kts 17°
2026-04-27 18:13 65.62578 13.30376 38450 ft 418 kts 17°
2026-04-27 18:13 65.68009 13.35459 38473 ft 418 kts 17°
2026-04-27 18:14 65.73397 13.40530 38462 ft 418 kts 17°
2026-04-27 18:14 65.78821 13.45640 38458 ft 418 kts 17°
2026-04-27 18:15 65.84242 13.50771 38450 ft 418 kts 17°
2026-04-27 18:15 65.89662 13.55930 38449 ft 418 kts 17°
2026-04-27 18:16 65.95085 13.61125 38447 ft 418 kts 17°
2026-04-27 18:16 66.00508 13.66324 38461 ft 418 kts 18°
2026-04-27 18:17 66.05927 13.71555 38447 ft 419 kts 18°
2026-04-27 18:17 66.11351 13.76813 38446 ft 419 kts 18°
2026-04-27 18:18 66.16777 13.82096 38443 ft 419 kts 18°
2026-04-27 18:18 66.22204 13.87400 38446 ft 420 kts 18°
2026-04-27 18:19 66.27634 13.92737 38461 ft 420 kts 18°
2026-04-27 18:19 66.33059 13.98093 38447 ft 420 kts 18°
2026-04-27 18:20 66.38485 14.03476 38454 ft 419 kts 18°
2026-04-27 18:20 66.43902 14.08879 38433 ft 419 kts 18°
2026-04-27 18:21 66.49317 14.14315 38438 ft 419 kts 18°
2026-04-27 18:21 66.54728 14.19765 38430 ft 419 kts 18°
2026-04-27 18:22 66.60139 14.25225 38445 ft 419 kts 18°
2026-04-27 18:22 66.65518 14.30685 38443 ft 420 kts 18°
2026-04-27 18:23 66.70938 14.36205 38429 ft 419 kts 18°
2026-04-27 18:23 66.76351 14.41746 38427 ft 420 kts 18°
2026-04-27 18:24 66.81763 14.47314 38425 ft 420 kts 18°
2026-04-27 18:24 66.87097 14.52822 38429 ft 420 kts 18°
2026-04-27 18:25 66.92605 14.58553 38435 ft 422 kts 18°
2026-04-27 18:25 66.98038 14.64246 38430 ft 422 kts 19°
2026-04-27 18:26 67.03472 14.69984 38425 ft 423 kts 19°
2026-04-27 18:26 67.08912 14.75727 38426 ft 423 kts 19°
2026-04-27 18:27 67.14355 14.81479 38425 ft 423 kts 19°
2026-04-27 18:27 67.19787 14.87271 38422 ft 423 kts 19°
2026-04-27 18:28 67.25221 14.93093 38422 ft 423 kts 19°
2026-04-27 18:28 67.30629 14.98892 38422 ft 423 kts 19°
2026-04-27 18:29 67.36064 15.04758 38423 ft 423 kts 19°
2026-04-27 18:29 67.41490 15.10669 38424 ft 423 kts 19°
2026-04-27 18:30 67.46915 15.16609 38424 ft 422 kts 19°
2026-04-27 18:30 67.52335 15.22545 38430 ft 423 kts 19°
2026-04-27 18:31 67.57762 15.28518 38421 ft 423 kts 19°
2026-04-27 18:31 67.63189 15.34540 38416 ft 424 kts 19°
2026-04-27 18:32 67.68615 15.40610 38417 ft 424 kts 19°
2026-04-27 18:32 67.74015 15.46645 38415 ft 424 kts 19°
2026-04-27 18:33 67.79455 15.52737 38436 ft 424 kts 19°
2026-04-27 18:33 67.84888 15.58866 38426 ft 425 kts 19°
2026-04-27 18:34 67.90319 15.65031 38417 ft 425 kts 19°
2026-04-27 18:34 67.95749 15.71251 38416 ft 425 kts 20°
2026-04-27 18:35 68.01173 15.77517 38413 ft 425 kts 20°
2026-04-27 18:35 68.06597 15.83787 38414 ft 425 kts 20°
2026-04-27 18:36 68.12017 15.90080 38421 ft 425 kts 20°
2026-04-27 18:36 68.17447 15.96402 38410 ft 425 kts 20°
2026-04-27 18:37 68.22876 16.02742 38404 ft 426 kts 20°
2026-04-27 18:37 68.28304 16.09144 38362 ft 426 kts 20°
2026-04-27 18:38 68.31015 16.12352 38088 ft 425 kts 20°
2026-04-27 18:38 68.33724 16.15561 37817 ft 424 kts 20°
2026-04-27 18:38 68.36416 16.18769 37490 ft 422 kts 20°
2026-04-27 18:38 68.39102 16.21978 36876 ft 421 kts 20°
2026-04-27 18:39 68.41761 16.25159 36217 ft 422 kts 20°
2026-04-27 18:39 68.44448 16.28381 35451 ft 423 kts 20°
2026-04-27 18:39 68.47107 16.31583 34676 ft 413 kts 20°
2026-04-27 18:39 68.49708 16.34734 33804 ft 404 kts 19°
2026-04-27 18:40 68.52239 16.37803 32970 ft 393 kts 19°
2026-04-27 18:40 68.54700 16.40783 32137 ft 385 kts 18°
2026-04-27 18:40 68.57158 16.43753 31356 ft 386 kts 18°
2026-04-27 18:40 68.59611 16.46726 30486 ft 386 kts 18°
2026-04-27 18:41 68.62071 16.49718 29605 ft 384 kts 18°
2026-04-27 18:41 68.64469 16.52672 29186 ft 373 kts 18°
2026-04-27 18:41 68.66024 16.54597 28822 ft 368 kts 18°
2026-04-27 18:41 68.69109 16.58410 28106 ft 359 kts 17°
2026-04-27 18:42 68.70606 16.60270 27759 ft 355 kts 19°
2026-04-27 18:42 68.72075 16.62431 27435 ft 356 kts 24°
2026-04-27 18:42 68.74724 16.67840 26670 ft 361 kts 33°
2026-04-27 18:42 68.76489 16.72793 26097 ft 362 kts 37°
2026-04-27 18:43 68.78203 16.77833 25530 ft 359 kts 37°
2026-04-27 18:43 68.79934 16.82849 24984 ft 364 kts 36°
2026-04-27 18:43 68.81849 16.87207 24544 ft 350 kts 23°
2026-04-27 18:43 68.84025 16.90024 24303 ft 344 kts 16°
2026-04-27 18:44 68.86233 16.92555 24079 ft 343 kts 16°
2026-04-27 18:44 68.88435 16.95060 23815 ft 342 kts 16°
2026-04-27 18:44 68.90630 16.97548 23528 ft 341 kts 16°
2026-04-27 18:44 68.92823 17.00031 23241 ft 340 kts 16°
2026-04-27 18:45 68.95005 17.02506 22937 ft 337 kts 16°
2026-04-27 18:45 68.97149 17.04941 22508 ft 330 kts 16°
2026-04-27 18:45 68.99258 17.07337 22050 ft 325 kts 16°
2026-04-27 18:45 69.01279 17.10234 21559 ft 330 kts 26°
2026-04-27 18:46 69.03091 17.14257 21013 ft 337 kts 36°
2026-04-27 18:46 69.04660 17.19170 20495 ft 339 kts 40°
2026-04-27 18:46 69.06190 17.24153 20013 ft 337 kts 42°
2026-04-27 18:46 69.07721 17.29123 19448 ft 336 kts 43°
2026-04-27 18:47 69.09244 17.34063 18924 ft 334 kts 43°
2026-04-27 18:47 69.10759 17.38985 18241 ft 335 kts 44°
2026-04-27 18:47 69.12300 17.43989 17427 ft 340 kts 44°
2026-04-27 18:47 69.13813 17.48922 16869 ft 337 kts 44°
2026-04-27 18:48 69.15330 17.53890 16286 ft 335 kts 44°
2026-04-27 18:48 69.16838 17.58842 15709 ft 333 kts 45°
2026-04-27 18:48 69.18340 17.63784 15122 ft 331 kts 45°
2026-04-27 18:48 69.19834 17.68712 14540 ft 331 kts 45°
2026-04-27 18:49 69.21326 17.73639 13927 ft 331 kts 46°
2026-04-27 18:49 69.22813 17.78565 13315 ft 329 kts 46°
2026-04-27 18:49 69.24291 17.83475 12731 ft 328 kts 46°
2026-04-27 18:49 69.25764 17.88379 12145 ft 327 kts 46°
2026-04-27 18:50 69.27234 17.93287 11559 ft 327 kts 46°
2026-04-27 18:50 69.28704 17.98201 10973 ft 328 kts 46°
2026-04-27 18:50 69.30169 18.03110 10564 ft 323 kts 47°
2026-04-27 18:50 69.31573 18.07851 10428 ft 303 kts 47°
2026-04-27 18:51 69.32876 18.12283 10177 ft 285 kts 47°
2026-04-27 18:51 69.34123 18.16519 9918 ft 279 kts 46°
2026-04-27 18:51 69.35368 18.20731 9781 ft 278 kts 46°
2026-04-27 18:51 69.36574 18.25016 9641 ft 279 kts 53°
2026-04-27 18:52 69.37418 18.30003 9490 ft 283 kts 69°
2026-04-27 18:52 69.37992 18.35399 8941 ft 293 kts 70°
2026-04-27 18:52 69.38570 18.40860 8513 ft 284 kts 70°
2026-04-27 18:53 69.39690 18.51519 7177 ft 282 kts 70°
2026-04-27 18:53 69.40237 18.56769 6822 ft 270 kts 70°
2026-04-27 18:53 69.40746 18.61710 6672 ft 251 kts 70°
2026-04-27 18:53 69.41219 18.66286 6566 ft 233 kts 68°
2026-04-27 18:54 69.41782 18.70408 6454 ft 215 kts 53°
2026-04-27 18:54 69.42690 18.73535 6360 ft 197 kts 35°
2026-04-27 18:54 69.43842 18.75594 6055 ft 196 kts 17°
2026-04-27 18:54 69.45148 18.76610 5735 ft 194 kts
2026-04-27 18:55 69.46454 18.77462 5431 ft 192 kts
2026-04-27 18:55 69.47759 18.78312 5154 ft 193 kts 10°
2026-04-27 18:55 69.49056 18.79161 4988 ft 189 kts 10°
2026-04-27 18:55 69.50347 18.80006 4807 ft 190 kts 10°
2026-04-27 18:56 69.51636 18.80851 4477 ft 191 kts 10°
2026-04-27 18:56 69.52931 18.81701 4123 ft 192 kts 10°
2026-04-27 18:56 69.54221 18.82548 3777 ft 194 kts 10°
2026-04-27 18:56 69.55536 18.83414 3440 ft 193 kts 10°
2026-04-27 18:57 69.56835 18.84271 3040 ft 188 kts
2026-04-27 18:57 69.58075 18.85091 2685 ft 177 kts 10°
2026-04-27 18:57 69.59245 18.85865 2356 ft 168 kts
2026-04-27 18:57 69.60354 18.86598 2035 ft 158 kts
2026-04-27 18:58 69.61388 18.87283 1716 ft 148 kts 11°
2026-04-27 18:58 69.62351 18.87920 1430 ft 137 kts 12°
2026-04-27 18:58 69.63265 18.88525 1155 ft 133 kts 12°
2026-04-27 18:58 69.64163 18.89120 910 ft 132 kts 12°
2026-04-27 18:59 69.65061 18.89714 679 ft 132 kts 12°
2026-04-27 18:59 69.65958 18.90314 427 ft 133 kts 12°
2026-04-27 18:59 69.66857 18.90914 207 ft 133 kts 12°
2026-04-27 18:59 69.67746 18.91503 41 ft 124 kts 13°
2026-04-27 19:00 69.68417 18.91946 30 ft 69 kts 14°
2026-04-27 19:00 69.68686 18.92121 23 ft 21 kts 12°
2026-04-27 19:00 69.68761 18.92056 20 ft 11 kts 291°
2026-04-27 19:00 69.68781 18.91810 20 ft 11 kts 279°
2026-04-27 19:01 69.68730 18.91682 20 ft 13 kts 192°
2026-04-27 19:01 69.68632 18.91618 21 ft 16 kts 194°
2026-04-27 19:01 69.68520 18.91543 26 ft 17 kts 193°
2026-04-27 19:01 69.68389 18.91499 27 ft 21 kts 179°
2026-04-27 19:02 69.68246 18.91442 29 ft 21 kts 193°
2026-04-27 19:02 69.68108 18.91352 35 ft 16 kts 192°
2026-04-27 19:02 69.68010 18.91290 35 ft 15 kts 192°
2026-04-27 19:02 69.67959 18.91230 34 ft 7 kts 230°
2026-04-27 19:03 69.67964 18.91110 35 ft 7 kts 287°
2026-04-27 19:03 69.67976 18.90969 35 ft 5 kts 283°
2026-04-27 19:03 69.67980 18.90923 34 ft 2 kts 283°
2026-04-27 19:03 69.67980 18.90921 34 ft 0 kts 283°